Regional Weather Roundup
Issued by NWS

Home | Current Version | Previous Version | Text Only | Print | Product List | Glossary Off
Versions: 1 2 3 4 5 6 7 8 9 10 11 12 13 14 15 16 17 18 19 20 21 22 23 24 25 26 27 28 29 30 31 32 33 34 35 36 37 38 39 40 41 42 43 44 45 46 47 48 49 50

000
ASUS43 KMPX 021110
RWRMN
WEATHER ROUNDUP FOR MINNESOTA
NATIONAL WEATHER SERVICE TWIN CITIES/CHANHASSEN MN
600 AM CDT WED SEP 02 2015


NOTE: "FAIR" INDICATES FEW OR NO CLOUDS BELOW 12,000 FEET WITH NO
SIGNIFICANT WEATHER AND/OR OBSTRUCTIONS TO VISIBILITY. N/A MEANS
CURRENT SKY AND/OR WEATHER CONDITIONS ARE NOT AVAILABLE.

MNZ060>063-068>070-021200-
   Twin Cities Metro

CITY           SKY/WX    TMP DP  RH WIND       PRES   REMARKS
TWIN CITIES    CLOUDY    70  67  90 NE5       29.91F FOG
ST PAUL        CLOUDY    69  68  96 CALM      29.92S
CRYSTAL        LGT RAIN  70  67  90 SE5       29.90R
BLAINE         LGT RAIN  70  70 100 E3        29.91F
LAKEVILLE      CLOUDY    66  66 100 S5        29.89F
EDEN PRAIRIE   CLOUDY    69  67  93 NE5       29.89F FOG
SOUTH ST PAUL  CLOUDY    69  68  94 CALM      29.92S
LAKE ELMO      LGT RAIN  68  68 100 CALM      29.93F
$$
MNZ001>005-007-008-013>017-022>024-027-028-021200-
   Northwest Minnesota

CITY           SKY/WX    TMP DP  RH WIND       PRES   REMARKS
BEMIDJI        MOCLDY    64  63  98 CALM      29.90S
HALLOCK        CLEAR     66  64  94 S10       29.82R
ROSEAU         CLEAR     63  57  82 S5        29.86S
WARROAD        CLEAR     61  57  88 CALM      29.88S
THIEF RVR FALL CLEAR     61  59  94 SE7       29.86S
CROOKSTON      CLEAR     68  66  94 S8        29.85R
FOSSTON        CLEAR     66  64  94 S7        29.88S FOG
DETROIT LAKES  CLEAR     68  66  94 SE6       29.90S FOG
MOORHEAD       CLEAR     66  66 100 SE6       29.85S
PARK RAPIDS    FOG       67  65  93 CALM      29.91R VSB 1/4
MAHNOMEN       FAIR      66  66  98 SE3       29.87S FOG
$$
MNZ006-009>011-018-025>026-021200-
   North Central Minnesota

CITY           SKY/WX    TMP DP  RH WIND       PRES   REMARKS
BAUDETTE       CLEAR     59  54  83 E6        29.88F
FLAG ISLAND    CLEAR     66  59  77 SE7       29.87S
INTL FALLS     CLEAR     55  53  93 SE3       29.92S
WASKISH        CLEAR     61  57  88 CALM      29.89S
BIG FORK       CLEAR     57  55  94 CALM      29.93R
LONGVILLE      MOCLDY    61  61 100 CALM      29.91R FOG
GRAND RAPIDS     N/A     63  59  88 CALM      29.92S
CRANE LAKE     PTCLDY    46  46 100 CALM      29.96R
ORR            MOCLDY    55  52  88 CALM      29.92R
COOK           PTCLDY    57  55  94 CALM      29.95R
WALKER         FOG       63  63  99 CALM      29.91R VSB 1/2
$$
MNZ012-019>021-037-021200-
   Northeast Minnesota

CITY           SKY/WX    TMP DP  RH WIND       PRES   REMARKS
DULUTH         LGT RAIN  68  65  90 E5        29.95R FOG
ELY            PTCLDY    54  52  94 CALM      29.98R
HIBBING        MOCLDY    64  60  87 CALM      29.94S
EVELETH        MOCLDY    63  59  88 NE3       29.96S
DULUTH HARBOR  DRIZZLE   63  61  94 E6        29.94S
TWO HARBORS    CLOUDY    68  63  83 CALM      29.94R
SILVER BAY     CLOUDY    63  59  88 CALM      29.94R
GRAND MARAIS     N/A     55  53  93 N3        29.95S
G MARAIS ARPRT PTCLDY    50  46  87 N7        30.01S
$$
MNZ029>031-032-039>041-046>048-054>057-064-021200-
   West Central Minnesota

CITY           SKY/WX    TMP DP  RH WIND       PRES   REMARKS
FERGUS FALLS   CLEAR     64  64 100 SE5       29.87R
WHEATON        CLEAR     57  57 100 E8        29.86F FOG
MORRIS         PTCLDY    63  63 100 SE6       29.86S
ALEXANDRIA     PTCLDY    66  64  93 SE8       29.90S
ELBOW LAKE     FAIR      64  62  93 S7        29.87R
WADENA         FOG       63  61  94 CALM      29.89S VSB<1/4
GLENWOOD       MOCLDY    63  63 100 E6        29.90S FOG
APPLETON       PTCLDY    64  61  88 E3        29.86R
BENSON         PTCLDY    66  61  82 SE7       29.86F
ORTONVILLE     CLEAR     64  61  88 SE6       29.85F
MADISON        CLEAR     63  61  94 CALM      29.86S
WILLMAR        FAIR      66  63  88 SE7       29.89S
$$
MNZ033>034-036-042>043-049>051-058-059-021200-
   Central Minnesota

CITY           SKY/WX    TMP DP  RH WIND       PRES   REMARKS
ST CLOUD       CLOUDY    68  67  96 E6        29.89F
SAUK CENTRE    FAIR      65  65  97 E3        29.90S
PAYNESVILLE    CLOUDY    66  65  95 CALM      29.90S
AITKIN         CLOUDY    73  66  78 S6        29.91R HAZE
PINE RIVER     FOG       63  63 100 CALM      29.94R VSB 1/4
BRAINERD       MOCLDY    72  70  93 S8        29.91S FOG
STAPLES        MOCLDY    66  66 100 SE3       29.90S FOG
LONG PRAIRIE   FAIR      64  64 100 E3        29.91S FOG
LITTLE FALLS   MOCLDY    70  68  94 E3        29.91S FOG
LITCHFIELD     CLOUDY    66  66 100 SE5       29.90S
BUFFALO        CLOUDY    66  64  90 E3        29.91S
MAPLE LAKE     CLOUDY    67  66  96 CALM      29.91S
$$
MNZ037-044-045-052-053-021200-
   East Central Minnesota

CITY           SKY/WX    TMP DP  RH WIND       PRES   REMARKS
PRINCETON      DRIZZLE   68  66  94 CALM      29.91F
MORA           LGT RAIN  70  64  83 S9        29.95R
CAMBRIDGE      RAIN      70  61  73 CALM      29.91F
RUSH CITY      TSTM      69  66  89 S7        29.94S
MOOSE LAKE     LGT RAIN  72  70  94 CALM      29.92S
HINCKLEY       LGT RAIN  73  72  94 CALM      29.94R
CLOQUET        CLOUDY    70  66  88 E5        29.95R FOG
MCGREGOR       CLOUDY    72  70  94 SE5       29.93R
$$
MNZ071>073-080-081-089-090-097-098-021200-
   Southwest Minnesota

CITY           SKY/WX    TMP DP  RH WIND       PRES   REMARKS
MONTEVIDEO     PTCLDY    64  63  94 S5        29.88S
GRANITE FALLS  PTCLDY    65  64  96 SE7       29.88S
CANBY          CLEAR     62  60  94 S5        29.87S
MARSHALL       CLEAR     64  59  82 SE6       29.87F
REDWOOD FALLS  CLEAR     67  63  87 S9        29.86F
OLIVIA         PTCLDY    63  59  88 SE5       29.87S
PIPESTONE      CLEAR     64  64 100 SE8       29.88S FOG
WINDOM         CLEAR     68  66  94 SE3       29.90S FOG
WORTHINGTON    CLEAR     64  63  94 SE5       29.90F
JACKSON        CLEAR     70  68  94 S7        29.91F
TRACY          CLEAR     67  65  96 S8        29.88S
SLAYTON        CLEAR     64  64 100 CALM      29.90S FOG
$$
MNZ065>067-074>077-082>085-091>093-021200-
   South Central Minnesota

CITY           SKY/WX    TMP DP  RH WIND       PRES   REMARKS
MANKATO        MOCLDY    70  64  83 SE9       29.91S
NEW ULM        PTCLDY    66  66 100 SE10      29.89S
ST JAMES       CLEAR     68  66  94 SE8       29.91S
FAIRMONT       CLEAR     70  63  78 S8        29.91S
GLENCOE        CLOUDY    66  65  97 CALM      29.88S
FARIBAULT      CLOUDY    70  66  88 SE13      29.93F
OWATONNA       TSTM      70  66  88 SE14      29.94F
WASECA         CLOUDY    70  66  88 E5        29.94F
ALBERT LEA     MOCLDY    70  68  94 NE6       29.95S
$$
MNZ078>079-086>088-094>096-021200-
   Southeast Minnesota

CITY           SKY/WX    TMP DP  RH WIND       PRES   REMARKS
ROCHESTER      CLOUDY    69  67  93 NW5       29.99S THUNDER FOG
RED WING       LGT RAIN  73  70  88 CALM      29.91F
STANTON        DRIZZLE   69  66  89 CALM      29.91F
DODGE CENTER   TSTM      66  64  94 SW5       29.97F
AUSTIN         TSTM      72  70  94 CALM      29.99R
PRESTON        CLOUDY    69  66  90 CALM      29.99S
$$
ABBREVIATIONS USED IN REMARKS
   TC - TEMPERATURES IN CELSIUS
  WCI - WIND CHILL INDEX
   HX - HEAT INDEX
  VSB - VISIBILITY
$$


USA.gov is the U.S. government's official web portal to all federal, state and local government web resources and services.